Location: Dob?e?
(49.9411°N, 15.1496°E)
Time: 19:37:41
(UTC+00:00)

DELFI C3 - Pass Details

Date: 30 October 2021
Orbit: 529 x 543 km, 97.4° (Epoch: 04 December)

Event Time Altitude Azimuth Distance (km) Brightness Sun altitude
Exits shadow 19:18:04 14° 292° (WNW) 1,572 ? -35.2°
Drops below altitude 10° 19:19:10 10° 307° (NW) 1,788 ? -35.4°
Sets 19:22:03 0° 331° (NNW) 2,686 ? -35.8°
